Time,TemperatureF,DewpointF,PressureIn,WindDirection,WindDirectionDegrees,WindSpeedMPH,WindSpeedGustMPH,Humidity,HourlyPrecipIn,Conditions,Clouds,dailyrainin,SoftwareType,DateUTC
2013-06-12 00:01:00,57.2,54.3,29.81,NNW,345,1.1,0.0,90,0.00,RA,,0.00,WeatherDisplay:10.37,2013-06-12 04:01:00,
2013-06-12 00:03:00,57.1,54.2,29.81,NNW,328,1.1,1.1,90,0.00,RA,,0.00,WeatherDisplay:10.37,2013-06-12 04:03:00,
2013-06-12 00:08:00,56.9,54.0,29.82,WNW,283,1.1,0.0,90,0.00,RA,,0.00,WeatherDisplay:10.37,2013-06-12 04:08:00,
2013-06-12 00:13:00,56.8,53.9,29.82,NW,309,0.0,0.0,90,0.00,,,0.00,WeatherDisplay:10.37,2013-06-12 04:13:00,
2013-06-12 00:18:00,56.7,53.8,29.83,West,269,0.0,0.2,90,0.00,,,0.00,WeatherDisplay:10.37,2013-06-12 04:18:00,
2013-06-12 00:23:00,56.7,53.8,29.82,NW,316,2.3,0.0,90,0.00,,,0.00,WeatherDisplay:10.37,2013-06-12 04:23:00,
2013-06-12 00:28:00,56.6,53.7,29.83,WNW,302,0.0,0.0,90,0.00,,,0.00,WeatherDisplay:10.37,2013-06-12 04:28:00,
2013-06-12 00:33:00,56.6,53.7,29.83,WNW,293,0.0,0.0,90,0.00,,,0.00,WeatherDisplay:10.37,2013-06-12 04:33:00,
2013-06-12 00:38:00,56.6,53.7,29.83,West,274,1.0,0.0,90,0.00,,,0.00,WeatherDisplay:10.37,2013-06-12 04:38:00,
2013-06-12 00:43:00,56.5,53.3,29.82,NNW,328,0.0,0.0,89,0.00,,,0.00,WeatherDisplay:10.37,2013-06-12 04:43:00,
2013-06-12 00:48:00,56.5,53.3,29.82,NW,312,0.0,0.0,89,0.00,,,0.00,WeatherDisplay:10.37,2013-06-12 04:48:00,
2013-06-12 00:53:00,56.4,53.2,29.82,WNW,284,1.1,1.1,89,0.00,,,0.00,WeatherDisplay:10.37,2013-06-12 04:53:00,
2013-06-12 00:58:00,56.4,53.2,29.82,WNW,284,0.0,0.0,89,0.00,,,0.00,WeatherDisplay:10.37,2013-06-12 04:58:00,
2013-06-12 01:03:00,56.3,53.1,29.82,WNW,284,0.0,0.0,89,0.00,,,0.00,WeatherDisplay:10.37,2013-06-12 05:03:00,
2013-06-12 01:08:00,56.3,53.1,29.81,WSW,245,1.1,1.1,89,0.00,,,0.00,WeatherDisplay:10.37,2013-06-12 05:08:00,
2013-06-12 01:13:00,56.2,53.0,29.82,WSW,245,0.0,0.0,89,0.00,,,0.00,WeatherDisplay:10.37,2013-06-12 05:13:00,
2013-06-12 01:18:00,56.1,52.9,29.81,West,265,0.0,0.0,89,0.00,,,0.00,WeatherDisplay:10.37,2013-06-12 05:18:00,
2013-06-12 01:23:00,55.9,52.7,29.82,North,11,0.0,0.0,89,0.00,,,0.00,WeatherDisplay:10.37,2013-06-12 05:23:00,
2013-06-12 01:28:00,55.8,52.3,29.82,WNW,294,1.1,1.1,88,0.00,,,0.00,WeatherDisplay:10.37,2013-06-12 05:28:00,
2013-06-12 01:33:00,55.7,52.2,29.82,WNW,294,0.0,0.0,88,0.00,,,0.00,WeatherDisplay:10.37,2013-06-12 05:33:00,
2013-06-12 01:38:00,55.6,52.1,29.83,WNW,302,1.0,1.0,88,0.00,,,0.00,WeatherDisplay:10.37,2013-06-12 05:38:00,
2013-06-12 01:43:00,55.5,52.0,29.82,SE,129,0.0,0.0,88,0.00,,,0.00,WeatherDisplay:10.37,2013-06-12 05:43:00,
2013-06-12 01:48:00,55.5,51.7,29.82,WNW,297,2.3,2.3,87,0.00,,,0.00,WeatherDisplay:10.37,2013-06-12 05:48:00,
2013-06-12 01:53:00,55.6,52.1,29.83,ESE,106,1.0,1.0,88,0.00,,,0.00,WeatherDisplay:10.37,2013-06-12 05:53:00,
2013-06-12 01:58:00,55.5,52.0,29.82,North,356,1.1,1.1,88,0.00,,,0.00,WeatherDisplay:10.37,2013-06-12 05:58:00,
2013-06-12 02:03:00,55.6,52.1,29.82,NW,319,1.0,1.0,88,0.00,,,0.00,WeatherDisplay:10.37,2013-06-12 06:03:00,
2013-06-12 02:08:00,55.6,52.1,29.82,WNW,298,0.0,0.0,88,0.00,,,0.00,WeatherDisplay:10.37,2013-06-12 06:08:00,
2013-06-12 02:13:00,55.4,51.9,29.82,WNW,297,1.1,1.1,88,0.00,,,0.00,WeatherDisplay:10.37,2013-06-12 06:13:00,
2013-06-12 02:18:00,55.4,51.9,29.82,NW,309,0.0,0.0,88,0.00,,,0.00,WeatherDisplay:10.37,2013-06-12 06:18:00,
2013-06-12 02:23:00,55.3,51.5,29.83,NW,307,1.1,0.0,87,0.00,,,0.00,WeatherDisplay:10.37,2013-06-12 06:23:00,
2013-06-12 02:28:00,55.3,51.5,29.83,NNE,15,0.0,0.0,87,0.00,,,0.00,WeatherDisplay:10.37,2013-06-12 06:28:00,
2013-06-12 02:33:00,55.3,51.5,29.83,North,6,0.0,0.0,87,0.00,,,0.00,WeatherDisplay:10.37,2013-06-12 06:33:00,
2013-06-12 02:38:00,55.2,51.7,29.83,North,9,0.0,0.0,88,0.00,,,0.00,WeatherDisplay:10.37,2013-06-12 06:38:00,
2013-06-12 02:43:00,55.0,51.5,29.82,North,9,0.0,0.0,88,0.00,,,0.00,WeatherDisplay:10.37,2013-06-12 06:43:00,
2013-06-12 02:48:00,54.7,51.2,29.82,North,9,0.0,0.0,88,0.00,,,0.00,WeatherDisplay:10.37,2013-06-12 06:48:00,
2013-06-12 02:53:00,54.5,51.0,29.82,North,9,0.0,0.0,88,0.00,,,0.00,WeatherDisplay:10.37,2013-06-12 06:53:00,
2013-06-12 02:58:00,54.4,50.6,29.83,North,9,0.0,0.0,87,0.00,,,0.00,WeatherDisplay:10.37,2013-06-12 06:58:00,
2013-06-12 03:03:00,54.1,50.3,29.83,North,9,0.0,0.0,87,0.00,,,0.00,WeatherDisplay:10.37,2013-06-12 07:03:00,
2013-06-12 03:08:00,54.0,50.2,29.83,North,9,0.0,0.0,87,0.00,,,0.00,WeatherDisplay:10.37,2013-06-12 07:08:00,
2013-06-12 03:13:00,53.8,50.0,29.83,North,9,0.0,0.0,87,0.00,,,0.00,WeatherDisplay:10.37,2013-06-12 07:13:00,
2013-06-12 03:18:00,53.8,49.7,29.83,NNW,345,0.0,0.0,86,0.00,,,0.00,WeatherDisplay:10.37,2013-06-12 07:18:00,
2013-06-12 10:59:00,66.8,55.9,29.92,NNW,333,6.9,6.9,68,0.00,CLR,,0.00,WeatherDisplay:10.37,2013-06-12 14:59:00,
2013-06-12 11:04:00,66.8,56.7,29.92,West,270,3.5,3.5,70,0.00,CLR,,0.00,WeatherDisplay:10.37,2013-06-12 15:04:00,
2013-06-12 11:09:00,67.0,55.7,29.92,ENE,62,5.0,5.0,67,0.00,CLR,,0.00,WeatherDisplay:10.37,2013-06-12 15:09:00,
2013-06-12 11:14:00,66.7,56.2,29.92,ESE,103,3.5,3.5,69,0.00,CLR,,0.00,WeatherDisplay:10.37,2013-06-12 15:14:00,
2013-06-12 11:19:00,66.9,57.2,29.92,NNW,340,1.1,1.1,71,0.00,CLR,,0.00,WeatherDisplay:10.37,2013-06-12 15:19:00,
2013-06-12 11:24:00,67.7,55.9,29.92,East,79,4.6,4.6,66,0.00,CLR,,0.00,WeatherDisplay:10.37,2013-06-12 15:24:00,
2013-06-12 11:29:00,67.4,55.6,29.92,ENE,70,3.5,3.5,66,0.00,CLR,,0.00,WeatherDisplay:10.37,2013-06-12 15:29:00,
2013-06-12 11:34:00,67.6,55.8,29.92,NNE,33,2.3,2.3,66,0.00,CLR,,0.00,WeatherDisplay:10.37,2013-06-12 15:34:00,
2013-06-12 11:39:00,68.1,55.9,29.92,SE,138,4.0,4.0,65,0.00,CLR,,0.00,WeatherDisplay:10.37,2013-06-12 15:39:00,
2013-06-12 11:44:00,68.2,56.4,29.92,ENE,77,3.5,3.5,66,0.00,CLR,,0.00,WeatherDisplay:10.37,2013-06-12 15:44:00,
2013-06-12 11:49:00,68.1,55.5,29.92,ENE,68,5.0,5.0,64,0.00,CLR,,0.00,WeatherDisplay:10.37,2013-06-12 15:49:00,
2013-06-12 11:54:00,67.6,55.4,29.92,East,79,3.5,3.5,65,0.00,CLR,,0.00,WeatherDisplay:10.37,2013-06-12 15:54:00,
2013-06-12 11:59:00,67.7,54.6,29.93,East,91,5.0,5.0,63,0.00,CLR,,0.00,WeatherDisplay:10.37,2013-06-12 15:59:00,
2013-06-12 12:04:00,67.6,54.6,29.93,NE,46,2.3,2.3,63,0.00,CLR,,0.00,WeatherDisplay:10.37,2013-06-12 16:04:00,
2013-06-12 12:09:00,68.0,54.0,29.93,ENE,68,3.5,3.5,61,0.00,CLR,,0.00,WeatherDisplay:10.37,2013-06-12 16:09:00,
2013-06-12 12:14:00,67.8,54.3,29.94,ESE,120,3.5,3.5,62,0.00,CLR,,0.00,WeatherDisplay:10.37,2013-06-12 16:14:00,
2013-06-12 12:19:00,68.4,54.9,29.93,WSW,249,2.3,2.3,62,0.00,CLR,,0.00,WeatherDisplay:10.37,2013-06-12 16:19:00,
2013-06-12 12:24:00,69.1,55.5,29.93,WNW,293,3.0,3.0,62,0.00,CLR,,0.00,WeatherDisplay:10.37,2013-06-12 16:24:00,
2013-06-12 12:29:00,69.2,54.7,29.93,WSW,242,2.3,2.3,60,0.00,CLR,,0.00,WeatherDisplay:10.37,2013-06-12 16:29:00,
2013-06-12 12:34:00,69.1,54.6,29.93,East,92,3.5,3.5,60,0.00,CLR,,0.00,WeatherDisplay:10.37,2013-06-12 16:34:00,
2013-06-12 12:39:00,68.9,54.9,29.93,NNE,33,3.0,3.0,61,0.00,CLR,,0.00,WeatherDisplay:10.37,2013-06-12 16:39:00,
2013-06-12 12:44:00,68.5,54.1,29.93,SE,129,2.3,2.3,60,0.00,CLR,,0.00,WeatherDisplay:10.37,2013-06-12 16:44:00,
2013-06-12 12:49:00,69.2,55.2,29.94,ESE,120,3.5,3.5,61,0.00,CLR,,0.00,WeatherDisplay:10.37,2013-06-12 16:49:00,
2013-06-12 12:54:00,68.7,53.3,29.93,SW,215,3.5,3.5,58,0.00,CLR,,0.00,WeatherDisplay:10.37,2013-06-12 16:54:00,
2013-06-12 12:59:00,69.0,55.4,29.93,NW,313,3.5,3.5,62,0.00,CLR,,0.00,WeatherDisplay:10.37,2013-06-12 16:59:00,
2013-06-12 13:05:00,69.3,55.3,29.93,SSE,149,2.3,2.3,61,0.00,CLR,,0.00,WeatherDisplay:10.37,2013-06-12 17:05:00,
2013-06-12 13:10:00,69.6,54.2,29.93,ESE,107,3.5,3.5,58,0.00,CLR,,0.00,WeatherDisplay:10.37,2013-06-12 17:10:00,
2013-06-12 13:15:00,69.7,53.8,29.93,ENE,63,3.0,3.4,57,0.00,CLR,,0.00,WeatherDisplay:10.37,2013-06-12 17:15:00,
2013-06-12 13:20:00,68.8,54.3,29.92,ESE,114,5.8,5.8,60,0.00,CLR,,0.00,WeatherDisplay:10.37,2013-06-12 17:20:00,
2013-06-12 13:25:00,69.2,54.7,29.92,ESE,120,3.5,3.5,60,0.00,CLR,,0.00,WeatherDisplay:10.37,2013-06-12 17:25:00,
2013-06-12 13:30:00,69.6,53.7,29.92,SE,127,5.8,5.8,57,0.00,CLR,,0.00,WeatherDisplay:10.37,2013-06-12 17:30:00,
2013-06-12 13:35:00,69.7,53.3,29.91,SSE,149,2.3,2.3,56,0.00,CLR,,0.00,WeatherDisplay:10.37,2013-06-12 17:35:00,
2013-06-12 13:40:00,69.8,54.4,29.90,East,96,3.5,3.5,58,0.00,CLR,,0.00,WeatherDisplay:10.37,2013-06-12 17:40:00,
2013-06-12 13:45:00,70.1,54.6,29.90,NE,47,1.1,2.7,58,0.00,CLR,,0.00,WeatherDisplay:10.37,2013-06-12 17:45:00,
2013-06-12 13:50:00,70.1,53.7,29.89,East,95,2.3,2.3,56,0.00,CLR,,0.00,WeatherDisplay:10.37,2013-06-12 17:50:00,
2013-06-12 13:55:00,70.2,53.8,29.89,South,183,3.5,3.5,56,0.00,CLR,,0.00,WeatherDisplay:10.37,2013-06-12 17:55:00,
2013-06-12 14:00:00,70.6,54.1,29.89,NE,51,4.6,4.6,56,0.00,CLR,,0.00,WeatherDisplay:10.37,2013-06-12 18:00:00,
2013-06-12 14:05:00,70.3,53.4,29.89,North,11,2.3,2.3,55,0.00,CLR,,0.00,WeatherDisplay:10.37,2013-06-12 18:05:00,
2013-06-12 14:10:00,70.7,54.2,29.89,South,181,3.5,3.5,56,0.00,CLR,,0.00,WeatherDisplay:10.37,2013-06-12 18:10:00,
2013-06-12 14:15:00,70.8,53.8,29.88,West,274,3.5,3.5,55,0.00,CLR,,0.00,WeatherDisplay:10.37,2013-06-12 18:15:00,
2013-06-12 14:20:00,71.1,54.6,29.88,WSW,250,3.0,3.0,56,0.00,CLR,,0.00,WeatherDisplay:10.37,2013-06-12 18:20:00,
2013-06-12 14:25:00,70.6,53.1,29.88,NNW,331,4.6,4.6,54,0.00,CLR,,0.00,WeatherDisplay:10.37,2013-06-12 18:25:00,
2013-06-12 14:30:00,70.5,54.0,29.88,East,97,2.3,2.3,56,0.00,CLR,,0.00,WeatherDisplay:10.37,2013-06-12 18:30:00,
2013-06-12 14:35:00,70.3,54.3,29.88,East,86,3.5,3.5,57,0.00,CLR,,0.00,WeatherDisplay:10.37,2013-06-12 18:35:00,
2013-06-12 14:40:00,70.3,54.8,29.87,WNW,301,1.1,1.1,58,0.00,CLR,,0.00,WeatherDisplay:10.37,2013-06-12 18:40:00,
2013-06-12 14:45:00,70.7,55.7,29.87,NW,306,2.0,2.8,59,0.00,CLR,,0.00,WeatherDisplay:10.37,2013-06-12 18:45:00,
2013-06-12 14:50:00,70.7,55.7,29.87,South,186,1.1,1.1,59,0.00,CLR,,0.00,WeatherDisplay:10.37,2013-06-12 18:50:00,
2013-06-12 14:55:00,71.6,57.0,29.88,NE,51,3.0,3.0,60,0.00,CLR,,0.00,WeatherDisplay:10.37,2013-06-12 18:55:00,
2013-06-12 15:00:00,71.7,55.7,29.88,SSE,157,2.3,2.3,57,0.00,CLR,,0.00,WeatherDisplay:10.37,2013-06-12 19:00:00,
2013-06-12 15:05:00,72.0,54.9,29.88,NE,40,1.1,1.1,55,0.00,,,0.00,WeatherDisplay:10.37,2013-06-12 19:05:00,
2013-06-12 15:10:00,72.5,58.3,29.88,ENE,73,3.5,3.5,61,0.00,,,0.00,WeatherDisplay:10.37,2013-06-12 19:10:00,
2013-06-12 15:15:00,72.4,57.7,29.88,ENE,77,1.1,1.1,60,0.00,,,0.00,WeatherDisplay:10.37,2013-06-12 19:15:00,
2013-06-12 15:20:00,72.7,55.6,29.89,SSW,199,0.0,0.0,55,0.00,,,0.00,WeatherDisplay:10.37,2013-06-12 19:20:00,
2013-06-12 15:25:00,73.4,56.2,29.89,SW,217,0.0,0.0,55,0.00,,,0.00,WeatherDisplay:10.37,2013-06-12 19:25:00,
2013-06-12 15:30:00,74.0,55.3,29.89,WNW,294,2.3,2.3,52,0.00,,,0.00,WeatherDisplay:10.37,2013-06-12 19:30:00,
2013-06-12 15:35:00,73.3,55.1,29.88,WNW,291,3.5,3.5,53,0.00,,,0.00,WeatherDisplay:10.37,2013-06-12 19:35:00,
2013-06-12 15:40:00,72.3,54.2,29.88,WNW,285,3.5,3.5,53,0.00,,,0.00,WeatherDisplay:10.37,2013-06-12 19:40:00,
2013-06-12 15:45:00,72.5,55.9,29.89,SW,226,0.0,0.0,56,0.00,,,0.00,WeatherDisplay:10.37,2013-06-12 19:45:00,
2013-06-12 15:50:00,73.5,55.8,29.88,NE,52,3.5,3.5,54,0.00,,,0.00,WeatherDisplay:10.37,2013-06-12 19:50:00,
2013-06-12 15:55:00,73.1,56.0,29.88,West,278,3.5,3.5,55,0.00,,,0.00,WeatherDisplay:10.37,2013-06-12 19:55:00,
2013-06-12 16:00:00,72.9,55.3,29.88,WNW,291,1.0,1.0,54,0.00,,,0.00,WeatherDisplay:10.37,2013-06-12 20:00:00,
2013-06-12 16:05:00,73.3,55.6,29.88,West,278,3.5,3.5,54,0.00,,,0.00,WeatherDisplay:10.37,2013-06-12 20:05:00,
2013-06-12 16:10:00,72.5,55.9,29.87,West,266,1.0,0.0,56,0.00,,,0.00,WeatherDisplay:10.37,2013-06-12 20:10:00,
2013-06-12 16:15:00,73.4,56.7,29.87,NE,44,1.1,1.1,56,0.00,,,0.00,WeatherDisplay:10.37,2013-06-12 20:15:00,
2013-06-12 16:20:00,73.7,56.0,29.86,NE,34,3.0,3.0,54,0.00,,,0.00,WeatherDisplay:10.37,2013-06-12 20:20:00,
2013-06-12 16:25:00,73.0,55.9,29.86,North,3,2.3,2.3,55,0.00,,,0.00,WeatherDisplay:10.37,2013-06-12 20:25:00,
2013-06-12 16:30:00,73.2,56.1,29.86,ESE,105,1.1,1.1,55,0.00,,,0.00,WeatherDisplay:10.37,2013-06-12 20:30:00,
2013-06-12 16:35:00,73.9,56.2,29.85,WSW,253,1.1,1.1,54,0.00,,,0.00,WeatherDisplay:10.37,2013-06-12 20:35:00,
2013-06-12 16:40:00,73.9,56.2,29.85,West,263,1.1,1.1,54,0.00,,,0.00,WeatherDisplay:10.37,2013-06-12 20:40:00,
2013-06-12 16:45:00,74.9,57.6,29.85,SE,124,0.0,0.0,55,0.00,,,0.00,WeatherDisplay:10.37,2013-06-12 20:45:00,
2013-06-12 16:50:00,75.0,57.2,29.85,ESE,114,1.1,1.1,54,0.00,,,0.00,WeatherDisplay:10.37,2013-06-12 20:50:00,
2013-06-12 16:56:00,75.0,56.7,29.85,SW,214,2.3,2.3,53,0.00,,,0.00,WeatherDisplay:10.37,2013-06-12 20:56:00,
2013-06-12 17:01:00,75.2,55.3,29.85,SSE,155,2.3,2.3,50,0.00,,,0.00,WeatherDisplay:10.37,2013-06-12 21:01:00,
2013-06-12 17:06:00,75.9,59.1,29.85,SSE,155,0.0,0.0,56,0.00,CLR,,0.00,WeatherDisplay:10.37,2013-06-12 21:06:00,
2013-06-12 17:11:00,76.4,56.4,29.85,SSE,149,1.1,0.0,50,0.00,CLR,,0.00,WeatherDisplay:10.37,2013-06-12 21:11:00,
2013-06-12 17:16:00,76.6,56.6,29.85,WSW,255,2.3,2.3,50,0.00,CLR,,0.00,WeatherDisplay:10.37,2013-06-12 21:16:00,
2013-06-12 17:21:00,76.7,58.8,29.85,SE,139,0.0,0.0,54,0.00,CLR,,0.00,WeatherDisplay:10.37,2013-06-12 21:21:00,
2013-06-12 17:26:00,75.6,55.6,29.85,SE,132,0.0,0.0,50,0.00,CLR,,0.00,WeatherDisplay:10.37,2013-06-12 21:26:00,
2013-06-12 17:31:00,76.5,57.0,29.84,SW,233,0.0,0.0,51,0.00,CLR,,0.00,WeatherDisplay:10.37,2013-06-12 21:31:00,
2013-06-12 17:36:00,76.8,57.3,29.84,West,278,0.0,0.0,51,0.00,CLR,,0.00,WeatherDisplay:10.37,2013-06-12 21:36:00,
2013-06-12 17:41:00,76.0,56.0,29.85,WSW,257,0.0,0.0,50,0.00,CLR,,0.00,WeatherDisplay:10.37,2013-06-12 21:41:00,
2013-06-12 17:46:00,76.1,56.1,29.85,West,270,0.0,0.0,50,0.00,CLR,,0.00,WeatherDisplay:10.37,2013-06-12 21:46:00,
2013-06-12 17:51:00,75.8,54.1,29.85,SE,125,0.0,0.0,47,0.00,CLR,,0.00,WeatherDisplay:10.37,2013-06-12 21:51:00,
2013-06-12 17:56:00,75.9,55.4,29.85,NW,321,0.0,0.0,49,0.00,CLR,,0.00,WeatherDisplay:10.37,2013-06-12 21:56:00,
2013-06-12 18:01:00,76.0,55.5,29.85,WNW,300,1.0,0.0,49,0.00,CLR,,0.00,WeatherDisplay:10.37,2013-06-12 22:01:00,
2013-06-12 18:06:00,76.1,55.5,29.84,SE,132,0.0,0.0,49,0.00,CLR,,0.00,WeatherDisplay:10.37,2013-06-12 22:06:00,
2013-06-12 18:11:00,75.6,57.3,29.84,East,93,2.0,2.0,53,0.00,CLR,,0.00,WeatherDisplay:10.37,2013-06-12 22:11:00,
2013-06-12 18:16:00,74.5,58.3,29.85,NE,40,0.0,0.0,57,0.00,CLR,,0.00,WeatherDisplay:10.37,2013-06-12 22:16:00,
2013-06-12 18:21:00,74.3,59.5,29.85,ENE,58,0.0,0.0,60,0.00,CLR,,0.00,WeatherDisplay:10.37,2013-06-12 22:21:00,
2013-06-12 18:26:00,73.9,59.6,29.85,SSW,197,0.0,0.0,61,0.00,CLR,,0.00,WeatherDisplay:10.37,2013-06-12 22:26:00,
2013-06-12 18:32:00,74.0,58.8,29.85,NNW,336,2.3,2.3,59,0.00,CLR,,0.00,WeatherDisplay:10.37,2013-06-12 22:32:00,
2013-06-12 18:37:00,73.7,59.4,29.85,SE,134,0.0,0.0,61,0.00,CLR,,0.00,WeatherDisplay:10.37,2013-06-12 22:37:00,
2013-06-12 18:42:00,73.0,58.8,29.85,NW,309,1.1,0.0,61,0.00,CLR,,0.00,WeatherDisplay:10.37,2013-06-12 22:42:00,
2013-06-12 18:47:00,72.3,58.1,29.85,NNE,19,0.0,0.0,61,0.00,CLR,,0.00,WeatherDisplay:10.37,2013-06-12 22:47:00,
2013-06-12 18:52:00,71.9,58.2,29.85,East,79,0.0,0.0,62,0.00,CLR,,0.00,WeatherDisplay:10.37,2013-06-12 22:52:00,
2013-06-12 18:57:00,71.5,57.8,29.85,East,86,0.0,0.0,62,0.00,CLR,,0.00,WeatherDisplay:10.37,2013-06-12 22:57:00,
2013-06-12 19:02:00,71.0,59.5,29.85,ENE,77,0.0,0.0,67,0.00,CLR,,0.00,WeatherDisplay:10.37,2013-06-12 23:02:00,
2013-06-12 19:07:00,70.8,57.6,29.84,East,101,0.0,0.0,63,0.00,CLR,,0.00,WeatherDisplay:10.37,2013-06-12 23:07:00,
2013-06-12 19:12:00,70.9,56.8,29.84,North,359,0.0,0.0,61,0.00,CLR,,0.00,WeatherDisplay:10.37,2013-06-12 23:12:00,
2013-06-12 19:17:00,70.9,56.3,29.84,NNE,13,1.1,1.1,60,0.00,CLR,,0.00,WeatherDisplay:10.37,2013-06-12 23:17:00,
2013-06-12 19:22:00,70.7,56.6,29.84,North,357,0.0,0.0,61,0.00,CLR,,0.00,WeatherDisplay:10.37,2013-06-12 23:22:00,
2013-06-12 19:27:00,70.3,56.7,29.84,NW,306,0.0,0.0,62,0.00,CLR,,0.00,WeatherDisplay:10.37,2013-06-12 23:27:00,
2013-06-12 19:32:00,69.4,57.5,29.84,NW,306,0.0,0.0,66,0.00,CLR,,0.00,WeatherDisplay:10.37,2013-06-12 23:32:00,
2013-06-12 19:37:00,68.3,57.3,29.83,NW,308,0.0,0.0,68,0.00,CLR,,0.00,WeatherDisplay:10.37,2013-06-12 23:37:00,
2013-06-12 19:42:00,67.4,56.1,29.83,NW,306,0.0,0.0,67,0.00,CLR,,0.00,WeatherDisplay:10.37,2013-06-12 23:42:00,
2013-06-12 19:47:00,66.8,56.7,29.83,NW,306,0.0,0.0,70,0.00,CLR,,0.00,WeatherDisplay:10.37,2013-06-12 23:47:00,
2013-06-12 19:52:00,66.0,57.5,29.83,NW,306,0.0,0.0,74,0.00,CLR,,0.00,WeatherDisplay:10.37,2013-06-12 23:52:00,
2013-06-12 19:57:00,65.4,57.3,29.83,NW,306,0.0,0.0,75,0.00,CLR,,0.00,WeatherDisplay:10.37,2013-06-12 23:57:00,
2013-06-12 20:03:00,64.9,57.2,29.82,NW,307,0.0,0.0,76,0.00,CLR,,0.00,WeatherDisplay:10.37,2013-06-13 00:03:00,
2013-06-12 20:08:00,64.3,56.2,29.83,NW,307,0.0,0.0,75,0.00,CLR,,0.00,WeatherDisplay:10.37,2013-06-13 00:08:00,
2013-06-12 20:13:00,63.9,56.9,29.82,NW,306,0.0,0.0,78,0.00,CLR,,0.00,WeatherDisplay:10.37,2013-06-13 00:13:00,
2013-06-12 20:18:00,63.2,56.6,29.82,NW,306,0.0,0.0,79,0.00,CLR,,0.00,WeatherDisplay:10.37,2013-06-13 00:18:00,
2013-06-12 20:23:00,62.5,56.2,29.82,NW,307,0.0,0.0,80,0.00,CLR,,0.00,WeatherDisplay:10.37,2013-06-13 00:23:00,
2013-06-12 20:28:00,62.1,56.2,29.82,NW,307,0.0,0.0,81,0.00,CLR,,0.00,WeatherDisplay:10.37,2013-06-13 00:28:00,
2013-06-12 20:33:00,61.7,56.5,29.82,NW,307,0.0,0.0,83,0.00,CLR,,0.00,WeatherDisplay:10.37,2013-06-13 00:33:00,
2013-06-12 20:38:00,61.3,55.8,29.82,NW,306,0.0,0.0,82,0.00,CLR,,0.00,WeatherDisplay:10.37,2013-06-13 00:38:00,
2013-06-12 20:43:00,61.0,55.8,29.82,NW,307,0.0,0.0,83,0.00,CLR,,0.00,WeatherDisplay:10.37,2013-06-13 00:43:00,
2013-06-12 20:48:00,60.9,56.0,29.82,NW,306,0.0,0.0,84,0.00,CLR,,0.00,WeatherDisplay:10.37,2013-06-13 00:48:00,
2013-06-12 20:53:00,60.7,55.8,29.82,NW,307,0.0,0.0,84,0.00,CLR,,0.00,WeatherDisplay:10.37,2013-06-13 00:53:00,
2013-06-12 20:58:00,60.7,56.2,29.83,NW,307,0.0,0.0,85,0.00,CLR,,0.00,WeatherDisplay:10.37,2013-06-13 00:58:00,
2013-06-12 21:03:00,60.5,56.0,29.83,NW,307,0.0,0.0,85,0.00,,,0.00,WeatherDisplay:10.37,2013-06-13 01:03:00,
2013-06-12 21:08:00,60.5,56.0,29.83,NW,306,0.0,0.0,85,0.00,,,0.00,WeatherDisplay:10.37,2013-06-13 01:08:00,
2013-06-12 21:13:00,60.6,56.1,29.83,NW,307,0.0,0.0,85,0.00,,,0.00,WeatherDisplay:10.37,2013-06-13 01:13:00,
2013-06-12 21:18:00,60.8,56.6,29.83,NW,307,0.0,0.0,86,0.00,,,0.00,WeatherDisplay:10.37,2013-06-13 01:18:00,
2013-06-12 21:23:00,61.0,56.8,29.82,NW,307,0.0,0.0,86,0.00,,,0.00,WeatherDisplay:10.37,2013-06-13 01:23:00,
2013-06-12 21:29:00,61.2,57.0,29.82,NW,307,0.0,0.0,86,0.00,,,0.00,WeatherDisplay:10.37,2013-06-13 01:29:00,
2013-06-12 21:34:00,61.2,57.0,29.82,NW,306,0.0,0.0,86,0.00,,,0.00,WeatherDisplay:10.37,2013-06-13 01:34:00,
2013-06-12 21:39:00,61.3,57.4,29.82,NW,306,0.0,0.0,87,0.00,,,0.00,WeatherDisplay:10.37,2013-06-13 01:39:00,
2013-06-12 21:44:00,61.2,57.0,29.82,NW,307,0.0,0.0,86,0.00,,,0.00,WeatherDisplay:10.37,2013-06-13 01:44:00,
2013-06-12 21:49:00,61.1,56.9,29.82,NW,306,0.0,0.0,86,0.00,,,0.00,WeatherDisplay:10.37,2013-06-13 01:49:00,
2013-06-12 21:54:00,61.1,56.9,29.82,NW,307,0.0,0.0,86,0.00,,,0.00,WeatherDisplay:10.37,2013-06-13 01:54:00,
2013-06-12 21:59:00,61.0,56.5,29.81,NW,306,0.0,0.0,85,0.00,,,0.00,WeatherDisplay:10.37,2013-06-13 01:59:00,
2013-06-12 22:04:00,61.0,56.5,29.82,NW,306,0.0,0.0,85,0.00,,,0.00,WeatherDisplay:10.37,2013-06-13 02:04:00,
2013-06-12 22:09:00,61.0,56.8,29.82,NW,306,0.0,0.0,86,0.00,,,0.00,WeatherDisplay:10.37,2013-06-13 02:09:00,
2013-06-12 22:14:00,60.9,57.0,29.81,NW,306,0.0,0.0,87,0.00,,,0.00,WeatherDisplay:10.37,2013-06-13 02:14:00,
2013-06-12 22:19:00,60.7,56.8,29.81,NW,306,0.0,0.0,87,0.00,,,0.00,WeatherDisplay:10.37,2013-06-13 02:19:00,
2013-06-12 22:24:00,60.5,56.6,29.81,NW,307,0.0,0.0,87,0.00,,,0.00,WeatherDisplay:10.37,2013-06-13 02:24:00,
2013-06-12 22:29:00,60.3,56.7,29.81,NW,306,0.0,0.0,88,0.00,,,0.00,WeatherDisplay:10.37,2013-06-13 02:29:00,
2013-06-12 22:34:00,60.1,56.5,29.81,NW,307,0.0,0.0,88,0.00,,,0.00,WeatherDisplay:10.37,2013-06-13 02:34:00,
2013-06-12 22:39:00,60.0,56.4,29.81,NW,307,0.0,0.0,88,0.00,,,0.00,WeatherDisplay:10.37,2013-06-13 02:39:00,
2013-06-12 22:44:00,60.0,56.7,29.81,NW,307,0.0,0.0,89,0.00,,,0.00,WeatherDisplay:10.37,2013-06-13 02:44:00,
2013-06-12 22:49:00,60.0,56.7,29.81,NW,307,0.0,0.0,89,0.00,,,0.00,WeatherDisplay:10.37,2013-06-13 02:49:00,
2013-06-12 22:54:00,60.1,56.8,29.81,NW,307,0.0,0.0,89,0.00,,,0.00,WeatherDisplay:10.37,2013-06-13 02:54:00,
2013-06-12 22:59:00,60.1,56.8,29.81,NW,306,0.0,0.0,89,0.00,,,0.00,WeatherDisplay:10.37,2013-06-13 02:59:00,
2013-06-12 23:04:00,60.3,57.0,29.81,NW,307,0.0,0.0,89,0.00,,,0.00,WeatherDisplay:10.37,2013-06-13 03:04:00,
2013-06-12 23:09:00,60.5,57.2,29.80,NW,307,0.0,0.0,89,0.00,,,0.00,WeatherDisplay:10.37,2013-06-13 03:09:00,
2013-06-12 23:14:00,60.6,57.3,29.80,NW,306,0.0,0.0,89,0.00,,,0.00,WeatherDisplay:10.37,2013-06-13 03:14:00,
2013-06-12 23:19:00,60.7,57.1,29.79,NW,306,0.0,0.0,88,0.00,,,0.00,WeatherDisplay:10.37,2013-06-13 03:19:00,
2013-06-12 23:24:00,60.9,57.6,29.80,ESE,117,1.1,1.1,89,0.00,,,0.00,WeatherDisplay:10.37,2013-06-13 03:24:00,
2013-06-12 23:29:00,61.1,57.5,29.79,WSW,246,0.0,0.0,88,0.00,,,0.00,WeatherDisplay:10.37,2013-06-13 03:29:00,
2013-06-12 23:34:00,61.5,57.9,29.79,SSE,165,1.1,1.1,88,0.00,,,0.00,WeatherDisplay:10.37,2013-06-13 03:34:00,
2013-06-12 23:39:00,61.6,58.0,29.79,SSE,165,0.0,0.0,88,0.00,,,0.00,WeatherDisplay:10.37,2013-06-13 03:39:00,
2013-06-12 23:44:00,61.6,58.0,29.78,SSW,208,1.1,0.0,88,0.00,,,0.00,WeatherDisplay:10.37,2013-06-13 03:44:00,
2013-06-12 23:49:00,61.8,58.2,29.79,SW,217,0.0,0.0,88,0.00,,,0.00,WeatherDisplay:10.37,2013-06-13 03:49:00,
2013-06-12 23:54:00,62.0,58.4,29.79,SW,217,0.0,0.0,88,0.00,,,0.00,WeatherDisplay:10.37,2013-06-13 03:54:00,
2013-06-12 23:59:00,62.0,58.4,29.79,SW,217,0.0,0.0,88,0.00,,,0.00,WeatherDisplay:10.37,2013-06-13 03:59:00,